Location: Skalnate Pleso
(49.1889°N, 20.2450°E)
Time: 04:13:19
(UTC+02:00)

Cosmos 1269 Rocket - Pass Details

Date: 21 February 2020
Orbit: 772 x 780 km, 74.1° (Epoch: 08 April)

Event Time Altitude Azimuth Distance (km) Brightness Sun altitude
Exits shadow 03:12:09 23° 7° (N) 1,628 5.9 -33.8°
Drops below altitude 10° 03:14:08 10° 16° (NNE) 2,331 6.9 -33.5°
Sets 03:16:35 0° 21° (NNE) 3,263 7.8 -33.1°
